| time (UTC) | temp F | wind direction | speed MPH | gust MPH | rain 1hr in | rain 24hr in | rain mn in | humidity % | barometer mb |
| 20260506204526 | 79 | 188 | 0.0 | 3.0 | 0.01 | 0.04 | 0.03 | 79 | 1010.7 |
| 20260506203036 | 78 | 116 | 0.0 | 4.0 | 0.01 | 0.04 | 0.03 | 80 | 1011.0 |
| 20260506201518 | 78 | 165 | 1.0 | 2.0 | 0.00 | 0.03 | 0.02 | 81 | 1011.6 |
| 20260506200004 | 78 | 128 | 0.0 | 3.0 | 0.00 | 0.03 | 0.02 | 82 | 1011.6 |
| 20260506194505 | 78 | 238 | 0.0 | 2.0 | 0.00 | 0.03 | 0.02 | 83 | 1011.9 |
| 20260506193003 | 78 | 144 | 0.0 | 2.0 | 0.00 | 0.03 | 0.02 | 82 | 1012.0 |
| 20260506191506 | 77 | 186 | 0.0 | 2.0 | 0.00 | 0.03 | 0.02 | 84 | 1012.2 |
| 20260506184506 | 75 | 201 | 0.0 | 2.0 | 0.00 | 0.03 | 0.02 | 89 | 1012.8 |
| 20260506183003 | 75 | 201 | 0.0 | 2.0 | 0.00 | 0.03 | 0.02 | 87 | 1012.7 |
| 20260506181504 | 77 | 303 | 0.0 | 2.0 | 0.00 | 0.03 | 0.02 | 82 | 1012.7 |
| 20260506180009 | 77 | 350 | 0.0 | 2.0 | 0.00 | 0.04 | 0.02 | 81 | 1012.8 |
| 20260506174506 | 77 | 177 | 0.0 | 0.0 | 0.00 | 0.04 | 0.02 | 81 | 1012.9 |
| 20260506173013 | 77 | 177 | 0.0 | 4.0 | 0.00 | 0.04 | 0.02 | 81 | 1012.8 |
| 20260506171506 | 76 | 309 | 0.0 | 2.0 | 0.00 | 0.04 | 0.02 | 82 | 1012.9 |
| 20260506170006 | 76 | 115 | 0.0 | 2.0 | 0.00 | 0.04 | 0.02 | 81 | 1013.2 |
| 20260506164508 | 76 | 107 | 0.0 | 2.0 | 0.00 | 0.04 | 0.02 | 81 | 1013.2 |
| 20260506163004 | 77 | 254 | 0.0 | 6.0 | 0.00 | 0.04 | 0.02 | 80 | 1013.2 |
| 20260506161508 | 77 | 151 | 2.0 | 6.0 | 0.00 | 0.04 | 0.02 | 78 | 1013.0 |
| 20260506160009 | 77 | 119 | 1.0 | 5.0 | 0.00 | 0.04 | 0.02 | 79 | 1013.2 |
| 20260506154507 | 77 | 208 | 0.0 | 3.0 | 0.00 | 0.04 | 0.02 | 78 | 1013.4 |
| 20260506153010 | 77 | 292 | 0.0 | 4.0 | 0.00 | 0.04 | 0.02 | 78 | 1013.4 |
| 20260506150008 | 76 | 187 | 0.0 | 2.0 | 0.00 | 0.04 | 0.02 | 79 | 1012.9 |
| 20260506144509 | 76 | 199 | 0.0 | 4.0 | 0.00 | 0.05 | 0.02 | 80 | 1012.9 |
| 20260506143008 | 75 | 270 | 0.0 | 7.0 | 0.00 | 0.05 | 0.02 | 79 | 1012.8 |
| 20260506141510 | 74 | 111 | 0.0 | 2.0 | 0.01 | 0.05 | 0.02 | 81 | 1012.8 |
| 20260506140014 | 73 | 171 | 0.0 | 2.0 | 0.01 | 0.05 | 0.02 | 83 | 1013.1 |
| 20260506134512 | 72 | 224 | 0.0 | 2.0 | 0.01 | 0.05 | 0.02 | 83 | 1013.0 |
| 20260506133009 | 72 | 153 | 1.0 | 2.0 | 0.01 | 0.05 | 0.02 | 83 | 1013.2 |
| 20260506131510 | 73 | 137 | 0.0 | 6.0 | 0.00 | 0.04 | 0.01 | 83 | 1013.0 |
| 20260506130011 | 72 | 167 | 0.0 | 3.0 | 0.00 | 0.04 | 0.01 | 83 | 1012.9 |
| 20260506123012 | 71 | 327 | 0.0 | 8.0 | 0.00 | 0.04 | 0.01 | 85 | 1012.9 |
| 20260506121511 | 70 | 166 | 0.0 | 4.0 | 0.00 | 0.04 | 0.01 | 86 | 1012.8 |
| 20260506120017 | 69 | 133 | 0.0 | 2.0 | 0.00 | 0.04 | 0.01 | 86 | 1012.8 |
| 20260506114516 | 69 | 122 | 0.0 | 3.0 | 0.00 | 0.04 | 0.01 | 86 | 1012.8 |
| 20260506113014 | 69 | 117 | 0.0 | 2.0 | 0.00 | 0.04 | 0.01 | 86 | 1012.4 |
| 20260506111511 | 69 | 103 | 0.0 | 6.0 | 0.00 | 0.04 | 0.01 | 86 | 1012.1 |
| 20260506110004 | 69 | 144 | 0.0 | 3.0 | 0.00 | 0.04 | 0.01 | 86 | 1012.2 |
| 20260506104508 | 69 | 69 | 0.0 | 3.0 | 0.00 | 0.04 | 0.01 | 86 | 1011.7 |
| 20260506103017 | 69 | 125 | 0.0 | 3.0 | 0.00 | 0.05 | 0.01 | 86 | 1011.5 |
| 20260506101525 | 69 | 129 | 2.0 | 4.0 | 0.00 | 0.05 | 0.01 | 85 | 1011.1 |
| 20260506094520 | 69 | 116 | 0.0 | 4.0 | 0.00 | 0.05 | 0.01 | 85 | 1011.4 |
| 20260506093018 | 69 | 90 | 0.0 | 4.0 | 0.00 | 0.05 | 0.01 | 85 | 1011.0 |
| 20260506084508 | 69 | 135 | 1.0 | 5.0 | 0.00 | 0.05 | 0.01 | 83 | 1010.8 |
| 20260506083011 | 69 | 164 | 1.0 | 4.0 | 0.00 | 0.05 | 0.01 | 82 | 1010.8 |
| 20260506081516 | 69 | 116 | 1.0 | 3.0 | 0.00 | 0.05 | 0.01 | 82 | 1010.3 |
| 20260506071514 | 70 | 193 | 0.0 | 3.0 | 0.01 | 0.05 | 0.01 | 81 | 1010.8 |
| 20260506061512 | 71 | 184 | 2.0 | 12.0 | 0.00 | 0.04 | 0.00 | 77 | 1010.8 |
| 20260506044548 | 72 | 144 | 0.0 | 5.0 | 0.00 | 0.04 | 0.04 | 75 | 1011.7 |
| 20260506041523 | 73 | 200 | 0.0 | 10.0 | 0.00 | 0.04 | 0.04 | 74 | 1011.2 |
| 20260506040012 | 73 | 149 | 2.0 | 5.0 | 0.00 | 0.05 | 0.04 | 73 | 1011.1 |
| 20260506034537 | 73 | 150 | 1.0 | 7.0 | 0.00 | 0.05 | 0.04 | 73 | 1011.1 |
| 20260506033020 | 73 | 174 | 0.0 | 4.0 | 0.00 | 0.05 | 0.04 | 74 | 1011.1 |
| 20260506031523 | 72 | 147 | 0.0 | 4.0 | 0.00 | 0.05 | 0.04 | 75 | 1011.3 |
| 20260506030022 | 73 | 131 | 1.0 | 3.0 | 0.00 | 0.05 | 0.04 | 74 | 1010.8 |
| 20260506024517 | 72 | 101 | 0.0 | 2.0 | 0.00 | 0.05 | 0.04 | 74 | 1011.0 |
| 20260506023020 | 73 | 116 | 1.0 | 2.0 | 0.00 | 0.05 | 0.04 | 72 | 1011.2 |
| 20260506021523 | 73 | 134 | 2.0 | 4.0 | 0.00 | 0.05 | 0.04 | 1010.8 | |
| 20260506014520 | 73 | 139 | 1.0 | 3.0 | 0.00 | 0.05 | 0.04 | 71 | 1010.5 |
| 20260506013018 | 73 | 141 | 1.0 | 6.0 | 0.00 | 0.05 | 0.04 | 70 | 1010.6 |
| 20260506001522 | 74 | 99 | 1.0 | 6.0 | 0.01 | 0.05 | 0.04 | 69 | 1010.7 |